Lacon, IL

10:20 AM CST on January 17, 2018 (GMT -0600)
Lacon

Weather History for KC75 - December, 2012

Change the Weather History Date:

Tuesday, December 11, 2012

  Actual Average (KVYS) Record (KVYS)
Temperature  
Mean Temperature 33 °F -  
Max Temperature 42 °F 36 °F 57 °F (1965)
Min Temperature 24 °F 18 °F -17 °F (1972)
Degree Days  
Heating Degree Days 32    
Moisture  
Dew Point 24 °F    
Average Humidity 70    
Maximum Humidity 87    
Minimum Humidity 47    
Precipitation  
Precipitation 0.00 in - - ()
Sea Level Pressure  
Sea Level Pressure 30.05 in    
Wind  
Wind Speed 5 mph (South)    
Max Wind Speed 15 mph    
Max Gust Speed 20 mph    
Visibility 10 miles    
Events      
Averages and records for this station are not official NWS values.
T = Trace of Precipitation, MM = Missing Value Source: NWS Daily Summary

Daily Weather History Graph

Daily Weather History Graph

Search for Another Location

Airport or City:

Trip Planner

Search our weather history database for the weather conditions in past years. The results will help you decide how hot, cold, wet, or windy it might be!

Date:

Astronomy

Dec. 11, 2012 Rise Set
Actual Time 7:12 AM CST 4:29 PM CST
Civil Twilight 6:41 AM CST 5:00 PM CST
Nautical Twilight 6:06 AM CST 5:34 PM CST
Astronomical Twilight 5:33 AM CST 6:08 PM CST
Moon 5:06 AM CST (12/11) 3:08 PM CST (12/11)
Length of Visible Light 10h 18m
Length of Day
9h 16m
Waning Crescent, 4% of the Moon is Illuminated
Dec 11
Waning Crescent
Dec 13
New
Dec 19
First Quarter
Dec 28
Full
Jan 4
Last Quarter

Hourly Weather History & Observations

Time (CST) Temp. Windchill Dew Point Humidity Pressure Visibility Wind Dir Wind Speed Gust Speed Precip Events Conditions
12:15 AM 32.5 °F 28.1 °F 25.5 °F 75% 30.00 in 10.0 mi SW 4.6 mph - N/A   Overcast
12:35 AM 32.0 °F 26.4 °F 24.8 °F 75% 30.00 in 10.0 mi WSW 5.8 mph - N/A   Scattered Clouds
12:55 AM 31.1 °F 25.4 °F 24.8 °F 77% 30.01 in 10.0 mi SSW 5.8 mph - N/A   Scattered Clouds
1:15 AM 30.7 °F 27.3 °F 24.3 °F 77% 30.01 in 10.0 mi SSW 3.5 mph - N/A   Clear
1:35 AM 29.8 °F 23.9 °F 23.9 °F 79% 30.01 in 10.0 mi SW 5.8 mph - N/A   Clear
1:55 AM 30.2 °F 26.7 °F 23.9 °F 77% 30.01 in 10.0 mi WSW 3.5 mph - N/A   Clear
2:15 AM 28.9 °F - 23.2 °F 79% 30.01 in 10.0 mi Calm Calm - N/A   Clear
2:35 AM 28.0 °F - 22.8 °F 81% 30.01 in 10.0 mi Calm Calm - N/A   Clear
2:55 AM 27.1 °F 23.2 °F 22.1 °F 81% 30.02 in 10.0 mi South 3.5 mph - N/A   Scattered Clouds
3:15 AM 26.2 °F - 22.5 °F 86% 30.02 in 10.0 mi Calm Calm - N/A   Scattered Clouds
3:35 AM 24.6 °F 20.3 °F 20.8 °F 86% 30.02 in 10.0 mi SSW 3.5 mph - N/A   Scattered Clouds
3:55 AM 25.0 °F 19.3 °F 21.6 °F 87% 30.03 in 10.0 mi SSW 4.6 mph - N/A   Scattered Clouds
4:15 AM 25.9 °F 21.7 °F 21.9 °F 85% 30.03 in 10.0 mi South 3.5 mph - N/A   Scattered Clouds
4:35 AM 25.2 °F - 21.4 °F 86% 30.03 in 10.0 mi Calm Calm - N/A   Clear
4:55 AM 25.3 °F - 21.6 °F 86% 30.03 in 10.0 mi Calm Calm - N/A   Clear
5:15 AM 25.5 °F - 21.2 °F 84% 30.04 in 10.0 mi Calm Calm - N/A   Clear
5:35 AM 26.8 °F 22.8 °F 21.9 °F 82% 30.03 in 10.0 mi South 3.5 mph - N/A   Clear
5:55 AM 26.6 °F 22.6 °F 21.9 °F 82% 30.03 in 10.0 mi SSE 3.5 mph - N/A   Clear
6:15 AM 26.4 °F 22.4 °F 21.9 °F 83% 30.03 in 10.0 mi South 3.5 mph - N/A   Clear
6:35 AM 26.1 °F 21.9 °F 21.9 °F 84% 30.03 in 10.0 mi SE 3.5 mph - N/A   Clear
6:55 AM 25.3 °F 19.7 °F 20.8 °F 83% 30.03 in 10.0 mi SE 4.6 mph - N/A   Clear
7:15 AM 25.3 °F 21.1 °F 21.2 °F 84% 30.03 in 10.0 mi SSE 3.5 mph - N/A   Clear
7:35 AM 24.8 °F 20.5 °F 21.2 °F 86% 30.03 in 10.0 mi South 3.5 mph - N/A   Clear
7:55 AM 26.6 °F 22.6 °F 22.3 °F 84% 30.03 in 10.0 mi SSE 3.5 mph - N/A   Clear
8:15 AM 28.2 °F 24.4 °F 23.2 °F 81% 30.04 in 10.0 mi SSE 3.5 mph - N/A   Clear
8:35 AM 30.4 °F 25.6 °F 24.6 °F 79% 30.03 in 10.0 mi South 4.6 mph - N/A   Clear
8:55 AM 31.8 °F 24.6 °F 25.2 °F 76% 30.03 in 10.0 mi South 8.1 mph - N/A   Clear
9:15 AM 32.4 °F 24.0 °F 25.5 °F 76% 30.03 in 10.0 mi South 10.4 mph - N/A   Clear
9:35 AM 33.1 °F 24.4 °F 25.2 °F 73% 30.03 in 10.0 mi South 11.5 mph - N/A   Clear
9:55 AM 34.0 °F 25.0 °F 24.6 °F 69% 30.04 in 10.0 mi South 12.7 mph 17.3 mph N/A   Clear
10:15 AM 35.2 °F 25.8 °F 24.6 °F 65% 30.04 in 10.0 mi South 15.0 mph - N/A   Clear
10:35 AM 36.1 °F 29.3 °F 23.5 °F 60% 30.04 in 10.0 mi South 9.2 mph - N/A   Clear
10:55 AM 37.0 °F 28.9 °F 21.9 °F 54% 30.03 in 10.0 mi South 12.7 mph 18.4 mph N/A   Clear
11:15 AM 37.6 °F 29.1 °F 21.9 °F 53% 30.03 in 10.0 mi South 13.8 mph 19.6 mph N/A   Clear
11:35 AM 38.5 °F 31.1 °F 22.8 °F 53% 30.03 in 10.0 mi South 11.5 mph - N/A   Unknown
11:55 AM 39.2 °F 31.6 °F 23.4 °F 53% 30.03 in 10.0 mi South 12.7 mph 18.4 mph N/A   Unknown
12:15 PM 40.3 °F 33.9 °F 22.5 °F 49% 30.03 in 10.0 mi South 10.4 mph 18.4 mph N/A   Unknown
12:35 PM 40.3 °F 33.0 °F 21.6 °F 47% 30.03 in 10.0 mi South 12.7 mph - N/A   Unknown
12:55 PM 40.8 °F 33.7 °F 22.5 °F 48% 30.03 in 10.0 mi South 12.7 mph - N/A   Unknown
1:15 PM 41.0 °F 34.7 °F 22.8 °F 48% 30.02 in 10.0 mi SSW 10.4 mph - N/A   Unknown
1:35 PM 41.5 °F 35.4 °F 23.7 °F 49% 30.02 in 10.0 mi South 10.4 mph - N/A   Unknown
1:55 PM 41.5 °F 34.6 °F 23.4 °F 49% 30.03 in 10.0 mi SSW 12.7 mph - N/A   Unknown
2:15 PM 41.4 °F 35.7 °F 23.9 °F 50% 30.02 in 10.0 mi SSW 9.2 mph - N/A   Unknown
2:35 PM 42.3 °F 36.3 °F 23.4 °F 47% 30.02 in 10.0 mi SSW 10.4 mph 16.1 mph N/A   Unknown
2:55 PM 41.9 °F 36.3 °F 23.7 °F 49% 30.03 in 10.0 mi South 9.2 mph - N/A   Unknown
3:15 PM 41.9 °F 36.9 °F 24.3 °F 50% 30.03 in 10.0 mi SSW 8.1 mph - N/A   Unknown
3:35 PM 41.4 °F 35.7 °F 24.6 °F 51% 30.03 in 10.0 mi South 9.2 mph - N/A   Unknown
3:55 PM 41.0 °F 35.2 °F 24.6 °F 52% 30.04 in 10.0 mi SSW 9.2 mph - N/A   Unknown
4:15 PM 39.9 °F 35.8 °F 25.0 °F 55% 30.04 in 10.0 mi South 5.8 mph - N/A   Unknown
4:35 PM 38.8 °F 36.5 °F 25.0 °F 58% 30.05 in 10.0 mi SSW 3.5 mph - N/A   Unknown
4:55 PM 37.4 °F - 25.3 °F 62% 30.06 in 10.0 mi Calm Calm - N/A   Unknown
5:15 PM 34.7 °F - 25.2 °F 68% 30.07 in 10.0 mi Calm Calm - N/A   Unknown
5:35 PM 34.0 °F - 25.5 °F 71% 30.07 in 10.0 mi Calm Calm - N/A   Unknown
5:55 PM 32.9 °F - 24.8 °F 72% 30.08 in 10.0 mi Calm Calm - N/A   Unknown
6:15 PM 33.3 °F 30.2 °F 24.8 °F 71% 30.09 in 10.0 mi South 3.5 mph - N/A   Unknown
6:35 PM 32.2 °F 28.9 °F 24.4 °F 73% 30.10 in 10.0 mi SSW 3.5 mph - N/A   Unknown
6:55 PM 33.4 °F 30.4 °F 24.8 °F 71% 30.10 in 10.0 mi South 3.5 mph - N/A   Unknown
7:15 PM 32.7 °F - 25.2 °F 74% 30.11 in 10.0 mi Calm Calm - N/A   Unknown
7:35 PM 35.4 °F 31.5 °F 25.7 °F 68% 30.11 in 10.0 mi South 4.6 mph - N/A   Unknown
7:55 PM 34.3 °F 30.2 °F 24.8 °F 68% 30.11 in 10.0 mi South 4.6 mph - N/A   Unknown
8:15 PM 33.8 °F 29.6 °F 25.3 °F 71% 30.11 in 10.0 mi South 4.6 mph - N/A   Unknown
8:35 PM 35.1 °F 31.0 °F 26.4 °F 71% 30.12 in 10.0 mi South 4.6 mph - N/A   Unknown
8:55 PM 35.1 °F 30.1 °F 26.2 °F 70% 30.12 in 10.0 mi South 5.8 mph - N/A   Unknown
9:15 PM 35.6 °F 29.9 °F 26.4 °F 69% 30.12 in 10.0 mi South 6.9 mph - N/A   Unknown
9:35 PM 35.6 °F 32.8 °F 26.2 °F 69% 30.13 in 10.0 mi South 3.5 mph - N/A   Unknown
9:55 PM 35.1 °F 32.2 °F 25.9 °F 69% 30.13 in 10.0 mi South 3.5 mph - N/A   Unknown
10:15 PM 35.1 °F 31.0 °F 26.6 °F 71% 30.14 in 10.0 mi South 4.6 mph - N/A   Unknown
10:35 PM 35.2 °F 32.4 °F 27.1 °F 72% 30.14 in 10.0 mi South 3.5 mph - N/A   Unknown
10:55 PM 34.9 °F 30.8 °F 27.3 °F 74% 30.15 in 10.0 mi SSW 4.6 mph - N/A   Unknown
11:15 PM 34.5 °F 31.6 °F 27.3 °F 75% 30.16 in 10.0 mi South 3.5 mph - N/A   Unknown
11:35 PM 34.5 °F 31.6 °F 27.5 °F 76% 30.16 in 10.0 mi South 3.5 mph - N/A   Unknown
11:55 PM 34.7 °F 31.8 °F 27.5 °F 75% 30.17 in 10.0 mi South 3.5 mph - N/A   Unknown